TimeCDT,TemperatureF,Dew PointF,Humidity,Sea Level PressureIn,VisibilityMPH,Wind Direction,Wind SpeedMPH,Gust SpeedMPH,PrecipitationIn,Events,Conditions,WindDirDegrees,DateUTC
12:53 AM,55.9,54.0,93,30.05,8.0,Calm,Calm,-,N/A,,Clear,0,2013-09-27 05:53:00
1:53 AM,54.0,52.0,93,30.06,9.0,Calm,Calm,-,N/A,,Clear,0,2013-09-27 06:53:00
2:53 AM,54.0,52.0,93,30.06,5.0,Calm,Calm,-,N/A,,Clear,0,2013-09-27 07:53:00
3:53 AM,53.1,52.0,96,30.05,9.0,Calm,Calm,-,N/A,,Clear,0,2013-09-27 08:53:00
4:30 AM,53.6,53.6,100,30.07,2.5,Calm,Calm,-,N/A,,Clear,0,2013-09-27 09:30:00
4:38 AM,55.4,53.6,94,30.07,4.0,Calm,Calm,-,N/A,,Clear,0,2013-09-27 09:38:00
4:46 AM,53.6,53.6,100,30.08,1.2,Calm,Calm,-,N/A,,Clear,0,2013-09-27 09:46:00
4:50 AM,53.6,51.8,94,30.08,0.5,Calm,Calm,-,N/A,Fog,Fog,0,2013-09-27 09:50:00
4:53 AM,52.0,52.0,100,30.07,0.5,Calm,Calm,-,N/A,Fog,Fog,0,2013-09-27 09:53:00
5:11 AM,53.6,51.8,94,30.08,0.8,Calm,Calm,-,N/A,,Clear,0,2013-09-27 10:11:00
5:18 AM,51.8,51.8,100,30.08,1.5,Calm,Calm,-,N/A,,Clear,0,2013-09-27 10:18:00
5:22 AM,51.8,51.8,100,30.09,3.0,Calm,Calm,-,N/A,,Clear,0,2013-09-27 10:22:00
5:36 AM,51.8,51.8,100,30.09,1.5,Calm,Calm,-,N/A,,Clear,0,2013-09-27 10:36:00
5:39 AM,51.8,51.8,100,30.09,0.8,Calm,Calm,-,N/A,,Clear,0,2013-09-27 10:39:00
5:48 AM,51.8,50.0,94,30.10,1.8,Calm,Calm,-,N/A,,Clear,0,2013-09-27 10:48:00
5:53 AM,51.1,48.9,92,30.10,10.0,Calm,Calm,-,N/A,,Clear,0,2013-09-27 10:53:00
5:59 AM,51.8,50.0,94,30.10,1.2,Calm,Calm,-,N/A,,Clear,0,2013-09-27 10:59:00
6:08 AM,51.8,50.0,94,30.11,1.5,Calm,Calm,-,N/A,,Partly Cloudy,0,2013-09-27 11:08:00
6:10 AM,51.8,50.0,94,30.11,4.0,Calm,Calm,-,N/A,,Partly Cloudy,0,2013-09-27 11:10:00
6:13 AM,51.8,50.0,94,30.11,1.8,Calm,Calm,-,N/A,,Partly Cloudy,0,2013-09-27 11:13:00
6:15 AM,53.6,51.8,94,30.11,1.0,Calm,Calm,-,N/A,,Mist,0,2013-09-27 11:15:00
6:17 AM,53.6,51.8,94,30.11,0.5,Calm,Calm,-,N/A,Fog,Fog,0,2013-09-27 11:17:00
6:30 AM,51.8,51.8,100,30.12,1.0,Calm,Calm,-,N/A,,Mist,0,2013-09-27 11:30:00
6:33 AM,51.8,51.8,100,30.12,2.0,Calm,Calm,-,N/A,,Partly Cloudy,0,2013-09-27 11:33:00
6:40 AM,51.8,51.8,100,30.12,6.0,Calm,Calm,-,N/A,,Partly Cloudy,0,2013-09-27 11:40:00
6:53 AM,52.0,51.1,97,30.12,1.8,Calm,Calm,-,N/A,,Clear,0,2013-09-27 11:53:00
7:13 AM,53.6,53.6,100,30.13,3.0,Calm,Calm,-,N/A,,Clear,0,2013-09-27 12:13:00
7:53 AM,59.0,55.9,90,30.14,7.0,Calm,Calm,-,N/A,,Clear,0,2013-09-27 12:53:00
8:53 AM,62.1,57.9,86,30.15,9.0,East,3.5,-,N/A,,Clear,90,2013-09-27 13:53:00
9:53 AM,68.0,61.0,78,30.15,10.0,ENE,3.5,-,N/A,,Clear,60,2013-09-27 14:53:00
10:53 AM,73.0,60.1,64,30.14,10.0,East,4.6,-,N/A,,Clear,100,2013-09-27 15:53:00
11:53 AM,77.0,59.0,54,30.13,10.0,ENE,4.6,-,N/A,,Clear,70,2013-09-27 16:53:00
12:53 PM,79.0,57.9,48,30.12,10.0,ESE,5.8,-,N/A,,Partly Cloudy,120,2013-09-27 17:53:00
1:53 PM,80.1,55.0,42,30.09,10.0,ESE,6.9,-,N/A,,Partly Cloudy,120,2013-09-27 18:53:00
2:53 PM,80.1,53.1,39,30.07,10.0,East,4.6,-,N/A,,Clear,100,2013-09-27 19:53:00
3:53 PM,82.0,53.1,37,30.06,10.0,Calm,Calm,-,N/A,,Clear,0,2013-09-27 20:53:00
4:53 PM,79.0,54.0,42,30.06,10.0,ESE,6.9,-,N/A,,Clear,120,2013-09-27 21:53:00
5:53 PM,77.0,57.9,52,30.07,10.0,Calm,Calm,-,N/A,,Clear,0,2013-09-27 22:53:00
6:53 PM,71.1,57.9,63,30.07,10.0,Calm,Calm,-,N/A,,Clear,0,2013-09-27 23:53:00
7:53 PM,69.1,57.9,68,30.08,10.0,Calm,Calm,-,N/A,,Scattered Clouds,0,2013-09-28 00:53:00
8:53 PM,66.9,59.0,76,30.09,10.0,Calm,Calm,-,N/A,,Partly Cloudy,0,2013-09-28 01:53:00
9:53 PM,64.0,57.9,80,30.11,10.0,Calm,Calm,-,N/A,,Clear,0,2013-09-28 02:53:00
10:53 PM,61.0,57.9,90,30.10,10.0,Calm,Calm,-,N/A,,Clear,0,2013-09-28 03:53:00
11:53 PM,60.1,57.9,93,30.09,10.0,Calm,Calm,-,N/A,,Clear,0,2013-09-28 04:53:00